Terminal Aerodrome Forecast
Issued by NWS

Home | Current Version | Previous Version | Text Only | Print | Product List | Glossary On
Versions: 1 2 3 4 5 6 7 8 9 10 11 12 13 14 15 16 17 18 19 20 21 22 23 24 25 26 27 28 29 30 31 32 33 34
000
FTAK31 PAFA 312320
TAFAUN
TAF
PAUN 312320Z 0100/0124 23010KT 5SM -RA BR SCT006 BKN010 OVC015
     FM010300 24008KT 5SM -RA BR OVC005
     FM012300 26006KT P6SM SCT007 OVC015=

USA.gov is the U.S. government's official web portal to all federal, state and local government web resources and services.